Regional Weather Roundup
Issued by NWS

Home | Current Version | Previous Version | Graphics & Text | Print | Product List | Glossary On
Versions: 1 2 3 4 5 6 7 8 9 10 11 12 13 14 15 16 17 18 19 20 21 22 23 24 25 26 27 28 29 30 31 32 33 34 35 36 37 38 39 40 41 42 43 44 45 46 47 48 49 50
936
ASUS44 KJAN 281203
RWRMS

MISSISSIPPI HOURLY WEATHER ROUNDUP
NATIONAL WEATHER SERVICE JACKSON MS
700 AM CDT SAT MAR 28 2015

NOTE: "FAIR: INDICATES FEW OR NO CLOUDS BELOW 12,000 FEET WITH NO
SIGNIFICANT WEATHER AND/OR OBSTRUCTIONS TO VISIBILITY.

MSZ001>002-007>008-010>013-018>021-025>028-034>036-281300-
NORTHWEST MISSISSIPPI

CITY           SKY/WX    TMP DP  RH WIND       PRES   REMARKS
CLARKSDALE     MOCLDY    37  28  70 E6        30.24R WCI  33
CLEVELAND      FAIR      38  34  87 E6        30.22R WCI  33
GREENWOOD      MOCLDY    36  30  79 CALM      30.24R
6HR MIN TEMP:  36; 6HR MAX TEMP:  43;

GREENVILLE     MOCLDY    40  34  79 E5        30.21R
6HR MIN TEMP:  38; 6HR MAX TEMP:  44;

OLIVE BRANCH   MOCLDY    34  30  86 CALM      30.23R
OXFORD         FAIR      28  28 100 CALM      30.24R
TUNICA         CLOUDY    37  28  70 E6        30.24S WCI  33
$$

MSZ003>006-009-014>017-022>024-029>033-037>039-281300-
NORTHEAST MISSISSIPPI

CITY           SKY/WX    TMP DP  RH WIND       PRES   REMARKS
COLUMBUS AFB   CLEAR     35  28  74 N3        30.23R
6HR MIN TEMP:  35; 6HR MAX TEMP:  39;

CORINTH        FAIR      30  27  86 CALM      30.22R
GOLDN TRIANGLE PTCLDY    36  28  75 CALM      30.22R
STARKVILLE     FAIR      32  32 100 CALM      30.22S FOG
TUPELO         CLEAR     31  26  82 NE6       30.23R WCI  25
6HR MIN TEMP:  30; 6HR MAX TEMP:  36;

$$

MSZ040-058-281300-
CENTRAL MISSISSIPPI

CITY           SKY/WX    TMP DP  RH WIND       PRES   REMARKS
JACKSON INTL   PTCLDY    37  34  89 CALM      30.22R
6HR MIN TEMP:  36; 6HR MAX TEMP:  44;

JACKSON HAWKNS CLEAR     38  35  89 NE3       30.22R
6HR MIN TEMP:  38; 6HR MAX TEMP:  45;

MERIDIAN KEY   CLEAR     34  33  96 CALM      30.23R
6HR MIN TEMP:  34; 6HR MAX TEMP:  41;

MERIDIAN NAS   NOT AVBL
RAYMOND        FAIR      37  32  81 CALM      30.21R HAZE
VICKSBURG      CLEAR     41  37  86 SE6       30.22R
6HR MIN TEMP:  37; 6HR MAX TEMP:  46; 6HR PCP: TRACE;

$$

MSZ059>079-281300-
SOUTH MISSISSIPPI

CITY           SKY/WX    TMP DP  RH WIND       PRES   REMARKS
BROOKHAVEN       N/A     36  36 100 CALM      30.22R
HATTIESBURG    CLEAR     40  37  89 CALM      30.24R
6HR MIN TEMP:  38; 6HR MAX TEMP:  48;

MCCOMB         CLEAR     39  36  89 CALM      30.21R
6HR MIN TEMP:  39; 6HR MAX TEMP:  48;

NATCHEZ        FAIR      43  36  75 SE3       30.20R
6HR MIN TEMP:  37; 6HR MAX TEMP:  46;

PINE BELT      CLEAR     36  32  87 N3        30.22S
6HR MIN TEMP:  36; 6HR MAX TEMP:  43;

$$

MSZ080>082-281300-
COASTAL MISSISSIPPI

CITY           SKY/WX    TMP DP  RH WIND       PRES   REMARKS
BAY ST LOUIS   CLEAR     43  36  75 CALM      30.22
BILOXI         CLEAR     44  38  79 NE6       30.21R
6HR MIN TEMP:  44; 6HR MAX TEMP:  52;

PASCAGOULA     CLEAR     38  37  97 CALM      30.23R
6HR MIN TEMP:  38; 6HR MAX TEMP:  48;

GULFPORT       CLEAR     44  37  76 N5        30.22R
6HR MIN TEMP:  43; 6HR MAX TEMP:  52;

$$



USA.gov is the U.S. government's official web portal to all federal, state and local government web resources and services.